[[{"header":{"parameterUnit":"m.s-1","parameterCategory":1,"la1":30.2991,"la2":30.254,"lo1":-89.0895,"lo2":-89.0444,"dy":0.0017,"dx":0.0017,"nx":28,"ny":28,"refTime":"2024-05-13T09:00:00:Z","depth":0,"parameterNumber":2,"parameterNumberName":"U-component_of_WINDS"},"data":[0,0,0,0,0,0,0,0,0,0,0,0,0,0,0,0,0,0,0,0,0,0,0,0,0,0,0,0,0,0,0,0,0,0,0,0,0,0,0,0,0,0,0,0,0,0,0,0,0,0,0,0,0,0,0,0,0,0,3.0891,3.0891,0,3.0975,3.0976,3.0977,3.0994,3.0994,3.0993,3.0992,3.1082,3.1085,3.1088,0,0,0,0,0,0,0,0,0,0,0,0,0,3.0747,3.075,3.089,3.0891,3.0893,3.0975,3.0976,3.0977,3.0995,3.0994,3.0993,3.0992,3.1081,3.1084,3.1088,0,0,0,0,0,0,0,0,0,0,0,0,0,3.0819,3.0751,3.089,3.0911,3.0914,3.0975,3.0976,3.0978,3.0995,3.0994,3.0993,3.0992,3.108,3.1084,3.1088,3.1135,0,0,3.1102,3.1104,0,0,0,0,0,0,0,0,3.0814,3.0824,3.0907,3.091,3.0913,3.0973,3.0958,3.1031,3.0995,3.0964,3.0992,3.0991,3.1047,3.1054,3.1072,3.114,3.1143,3.1102,3.1105,3.1107,3.1108,0,0,0,0,0,0,0,3.081,3.082,3.0924,3.0908,3.0912,3.0917,3.0926,3.0972,3.101,3.0967,3.0968,3.0978,3.1048,3.1067,3.1074,3.1145,3.1102,3.1106,3.1109,3.1111,3.1257,3.1258,0,0,0,0,0,0,3.08,3.0816,3.0921,3.0927,3.086,3.0921,3.0931,3.0955,3.1009,3.1017,3.0978,3.0978,3.106,3.1069,3.1077,3.1136,3.1107,3.1111,3.1114,3.1256,3.1257,3.1258,0,0,0,0,0,0,3.0797,3.081,3.0918,3.0872,3.0886,3.0924,3.0951,3.0957,3.0976,3.1018,3.1025,3.0991,3.106,3.1071,3.1121,3.114,3.1113,3.1117,3.1254,3.1256,3.1258,3.1255,0,0,0,0,0,0,3.0793,3.0808,3.0826,3.0872,3.0888,3.0959,3.0952,3.0959,3.0984,3.0984,3.1032,3.1039,3.106,3.1114,3.1125,3.1145,3.1121,3.1253,3.1255,3.1257,3.1253,3.1256,3.1259,0,0,0,0,0,3.0788,3.0822,3.0826,3.0839,3.0911,3.096,3.097,3.0992,3.0985,3.1003,3.1031,3.1037,3.1136,3.1119,3.1132,3.1153,3.1251,3.1254,3.1257,3.1252,3.1256,3.1258,0,0,0,0,0,0,3.0777,3.0828,3.0834,3.0884,3.0917,3.0963,3.0986,3.0995,3.1032,3.1031,3.1058,3.1069,3.1118,3.1141,3.1121,3.1203,3.1194,3.1199,3.1185,3.1189,3.1192,3.1185,3.1124,0,0,0,0,0,3.0781,3.0816,3.0859,3.0898,3.0915,3.0948,3.097,3.0985,3.1021,3.1036,3.1067,3.1102,3.1142,3.1167,3.1205,3.1257,3.1268,3.1278,3.1281,3.1283,3.1287,3.1317,3.1322,3.1267,3.1267,3.1267,0,0,3.0788,3.082,3.0841,3.0897,3.0925,3.0962,3.096,3.0998,3.1026,3.1042,3.1091,3.1115,3.1157,3.1208,3.1232,3.1229,3.1305,3.1286,3.1288,3.1291,3.1321,3.1326,3.133,3.1269,3.1269,3.1268,0,0,3.082,3.0848,3.0884,3.0912,3.0954,3.0976,3.0985,3.103,3.1046,3.1095,3.1108,3.1143,3.1209,3.1239,3.1262,3.1307,3.1315,3.1319,3.1333,3.1362,3.1366,3.137,3.1387,3.1392,3.1323,3.1323,3.1323,0,3.0824,3.0879,3.0902,3.094,3.0965,3.0981,3.1019,3.1045,3.1098,3.1115,3.1111,3.1195,3.1225,3.1283,3.1294,3.1313,3.1325,3.1314,3.1364,3.1368,3.1372,3.1388,3.1394,3.1324,3.1324,3.1324,3.1324,0,3.0882,3.092,3.0945,3.0995,3.1023,3.1061,3.1091,3.1116,3.1129,3.1152,3.1203,3.1238,3.1285,3.13,3.1313,3.1361,3.1358,3.1358,3.1349,3.1377,3.1393,3.1399,3.1324,3.1324,3.1324,3.1324,0,0,3.0909,3.0972,3.0981,3.1004,3.1052,3.1083,3.1122,3.1167,3.1188,3.1225,3.1259,3.1315,3.1317,3.1344,3.136,3.1386,3.1419,3.1383,3.1385,3.1389,3.1476,3.1475,3.1481,3.1425,3.1427,3.1428,3.1472,0,3.0947,3.1017,3.1039,3.1098,3.1134,3.115,3.1184,3.1218,3.1241,3.1276,3.1301,3.1341,3.1339,3.1356,3.1382,3.141,3.1437,3.1407,3.1458,3.146,3.1446,3.1489,3.1488,3.1528,3.1478,3.1479,3.148,0,3.1,3.1037,3.1099,3.1143,3.1159,3.119,3.1233,3.1266,3.1305,3.132,3.1351,3.1366,3.1409,3.1398,3.1458,3.1437,3.1459,3.1477,3.1479,3.1484,3.1471,3.1496,3.1542,3.1547,3.149,3.1489,3.1488,0,3.1014,3.1079,3.1125,3.1144,3.1197,3.1218,3.1242,3.128,3.1306,3.1344,3.1361,3.1404,3.1428,3.1461,3.1488,3.1478,3.1546,3.1537,3.156,3.1559,3.1573,3.1572,3.1623,3.1588,3.1588,3.1588,3.1588,0,3.1054,3.1091,3.1131,3.1159,3.1202,3.1229,3.127,3.1295,3.1329,3.1363,3.138,3.1412,3.1445,3.1481,3.1503,3.1549,3.156,3.1574,3.1579,3.1572,3.157,3.1587,3.1585,3.159,3.1589,3.1589,3.1589,0,3.1076,3.1104,3.1155,3.1201,3.1214,3.1243,3.1284,3.1312,3.1336,3.1379,3.139,3.1428,3.1472,3.1502,3.1558,3.1572,3.1623,3.1628,3.1609,3.1612,3.1633,3.163,3.1696,3.1706,3.1665,3.1665,3.1665,0,3.1099,3.1128,3.1178,3.1201,3.1224,3.1262,3.1289,3.1317,3.1344,3.1391,3.1414,3.1459,3.1496,3.1566,3.1599,3.1642,3.1648,3.1668,3.1655,3.1647,3.1648,3.1646,3.1649,3.167,3.167,3.1671,3.1671,0,3.1137,3.115,3.1187,3.1229,3.126,3.1295,3.133,3.1349,3.1383,3.1413,3.1457,3.1486,3.1544,3.1588,3.1635,3.166,3.1671,3.1675,3.1682,3.1675,3.1663,3.167,3.1615,3.1673,3.1673,3.1673,3.1673,3.1672,3.1161,3.1188,3.1227,3.1268,3.1297,3.133,3.1359,3.1386,3.1424,3.1472,3.1487,3.1534,3.1574,3.1638,3.1664,3.1701,3.1699,3.171,3.1713,3.1715,3.1715,3.1658,3.171,3.171,3.171,3.171,3.171,0,3.12,3.1227,3.1264,3.1312,3.1345,3.1352,3.1392,3.1419,3.1459,3.1496,3.1532,3.1584,3.1627,3.1664,3.1709,3.1732,3.1739,3.1743,3.1742,3.1747,3.1714,3.1703,3.1737,3.1737,3.1737,3.1737,3.1737,3.1737,3.1224,3.127,3.1288,3.1349,3.1376,3.1421,3.1443,3.1474,3.1503,3.156,3.1596,3.1619,3.1656,3.1704,3.1745,3.1755,3.1771,3.1774,3.1785,3.1753,3.175,3.1747,3.1736,3.1777,3.1777,3.1815,3.1815,3.1816]},{"header":{"parameterUnit":"m.s-1","parameterCategory":1,"la1":30.2991,"la2":30.254,"lo1":-89.0895,"lo2":-89.0444,"dy":0.0017,"dx":0.0017,"nx":28,"ny":28,"refTime":"2024-05-13T09:00:00:Z","depth":0,"parameterNumber":3,"parameterNumberName":"V-component_of_WINDS"},"data":[0,0,0,0,0,0,0,0,0,0,0,0,0,0,0,0,0,0,0,0,0,0,0,0,0,0,0,0,0,0,0,0,0,0,0,0,0,0,0,0,0,0,0,0,0,0,0,0,0,0,0,0,0,0,0,0,0,0,2.7105,2.7105,0,2.7085,2.7085,2.7084,2.7088,2.7088,2.7089,2.7089,2.7066,2.7065,2.7064,0,0,0,0,0,0,0,0,0,0,0,0,0,2.7142,2.7141,2.7105,2.7105,2.7104,2.7085,2.7085,2.7084,2.7088,2.7088,2.7089,2.7089,2.7066,2.7065,2.7064,0,0,0,0,0,0,0,0,0,0,0,0,0,2.7124,2.7141,2.7105,2.7104,2.7104,2.7085,2.7085,2.7084,2.7088,2.7088,2.7089,2.7089,2.7066,2.7065,2.7064,2.7044,0,0,2.7059,2.7059,0,0,0,0,0,0,0,0,2.7125,2.7123,2.7104,2.7104,2.7104,2.7089,2.7089,2.7071,2.7088,2.7094,2.7089,2.709,2.7073,2.7071,2.7066,2.7043,2.7042,2.7059,2.7058,2.7058,2.7057,0,0,0,0,0,0,0,2.7127,2.7124,2.7097,2.7104,2.7104,2.7103,2.7101,2.7086,2.708,2.7093,2.7093,2.7091,2.7073,2.7067,2.7066,2.7042,2.7059,2.7058,2.7057,2.7057,2.6998,2.6998,0,0,0,0,0,0,2.7129,2.7125,2.7098,2.7096,2.7116,2.7102,2.71,2.7093,2.7081,2.7079,2.7091,2.7091,2.707,2.7067,2.7065,2.7039,2.7058,2.7056,2.7056,2.6999,2.6998,2.6997,0,0,0,0,0,0,2.7129,2.7126,2.7098,2.7111,2.7107,2.7101,2.7094,2.7093,2.7087,2.7079,2.7078,2.7086,2.707,2.7067,2.7049,2.7038,2.7056,2.7055,2.7,2.6999,2.6998,2.6988,0,0,0,0,0,0,2.713,2.7126,2.712,2.7111,2.7106,2.7084,2.7093,2.7092,2.7085,2.7086,2.7074,2.7073,2.707,2.7051,2.7047,2.7037,2.7053,2.7001,2.6999,2.6998,2.699,2.6987,2.6985,0,0,0,0,0,2.7132,2.7118,2.712,2.7117,2.7099,2.7084,2.7081,2.7079,2.7084,2.7077,2.7071,2.7073,2.704,2.7049,2.7045,2.7034,2.7001,2.7,2.6998,2.6991,2.6988,2.6985,0,0,0,0,0,0,2.7127,2.7117,2.7119,2.7102,2.7094,2.7084,2.7075,2.7076,2.7065,2.7066,2.7063,2.706,2.7041,2.7036,2.7046,2.7012,2.7021,2.7019,2.7017,2.7014,2.7012,2.7013,2.7052,0,0,0,0,0,2.7124,2.7114,2.7105,2.7091,2.7087,2.7082,2.7075,2.7074,2.7065,2.7061,2.7054,2.7044,2.703,2.7022,2.701,2.6989,2.6985,2.6979,2.6977,2.6975,2.6972,2.6958,2.6954,2.6992,2.6992,2.6992,0,0,2.7118,2.7111,2.7105,2.709,2.7083,2.7071,2.7079,2.7066,2.7056,2.7059,2.7041,2.7035,2.7023,2.7003,2.6994,2.6998,2.6961,2.6973,2.6972,2.697,2.6956,2.6952,2.6949,2.6991,2.6991,2.6991,0,0,2.7099,2.7094,2.7081,2.7074,2.7064,2.706,2.7056,2.7046,2.7042,2.7025,2.7025,2.7013,2.6991,2.6982,2.6975,2.695,2.6951,2.6946,2.6934,2.692,2.6917,2.6914,2.6903,2.6899,2.6944,2.6944,2.6944,0,2.7093,2.7076,2.7074,2.7061,2.7053,2.7055,2.704,2.7033,2.7018,2.7012,2.7017,2.6988,2.6981,2.6957,2.6951,2.6945,2.6939,2.6947,2.6918,2.6915,2.6912,2.6902,2.6898,2.6943,2.6943,2.6943,2.6944,0,2.7066,2.7054,2.7045,2.7031,2.7022,2.7008,2.7003,2.6994,2.6993,2.6988,2.6968,2.6958,2.6943,2.6937,2.6937,2.6912,2.6915,2.6919,2.6927,2.6908,2.6898,2.6894,2.6942,2.6943,2.6943,2.6943,0,0,2.7046,2.703,2.7026,2.7019,2.7007,2.6996,2.6981,2.6966,2.6958,2.6947,2.6933,2.6913,2.6916,2.6907,2.6905,2.6893,2.6871,2.6898,2.6897,2.6891,2.684,2.6836,2.6832,2.6871,2.687,2.687,2.684,0,2.7025,2.7,2.6997,2.6973,2.696,2.696,2.6947,2.6936,2.6931,2.6917,2.6911,2.6896,2.6902,2.6896,2.6884,2.6876,2.686,2.6878,2.6855,2.6855,2.6857,2.6827,2.6823,2.6796,2.6837,2.6836,2.6835,0,2.6998,2.6987,2.6962,2.6949,2.6944,2.6932,2.6916,2.6905,2.6892,2.6888,2.6877,2.6876,2.6857,2.6867,2.684,2.6852,2.6842,2.6837,2.6835,2.6832,2.6843,2.6821,2.6788,2.6783,2.683,2.683,2.683,0,2.6983,2.6962,2.6943,2.6937,2.6922,2.6913,2.6906,2.6894,2.6885,2.6871,2.6864,2.6848,2.6839,2.6825,2.6818,2.6826,2.6791,2.68,2.6785,2.6785,2.6777,2.6778,2.674,2.6773,2.6773,2.6773,2.6774,0,2.696,2.6944,2.6936,2.6925,2.6906,2.6902,2.6883,2.6876,2.6865,2.685,2.6849,2.6835,2.6828,2.6812,2.6806,2.6783,2.6779,2.6774,2.6772,2.6773,2.6774,2.6766,2.6767,2.6772,2.6773,2.6773,2.6773,0,2.694,2.6934,2.6914,2.6901,2.6897,2.6884,2.6872,2.6859,2.6853,2.6834,2.6829,2.6819,2.68,2.6792,2.6769,2.6764,2.6737,2.6738,2.6742,2.6741,2.6725,2.6726,2.668,2.6673,2.6713,2.6712,2.6712,0,2.6925,2.6913,2.6898,2.6889,2.6882,2.6867,2.6857,2.6851,2.684,2.6823,2.6812,2.6793,2.6778,2.6747,2.6736,2.6717,2.6716,2.6701,2.6713,2.6713,2.6713,2.6713,2.671,2.6698,2.6698,2.6698,2.6698,0,2.6899,2.6896,2.6882,2.6866,2.6855,2.6842,2.6829,2.6821,2.6813,2.68,2.6781,2.6769,2.6744,2.6725,2.6705,2.6695,2.6694,2.6694,2.6689,2.6689,2.6691,2.6687,2.6734,2.6695,2.6695,2.6695,2.6695,2.6696,2.6879,2.6868,2.6855,2.6839,2.6829,2.6816,2.6803,2.6795,2.6779,2.6759,2.6756,2.6735,2.6719,2.6692,2.6681,2.6663,2.6666,2.666,2.6658,2.6656,2.6654,2.6695,2.6659,2.6659,2.666,2.666,2.666,0,2.6851,2.6843,2.6828,2.681,2.6796,2.6798,2.6783,2.6771,2.6753,2.6738,2.6723,2.6699,2.6679,2.6665,2.6644,2.6632,2.663,2.6626,2.6626,2.6623,2.6653,2.6659,2.6627,2.6628,2.6628,2.6628,2.6628,2.6628,2.6835,2.6814,2.6809,2.6782,2.6773,2.6753,2.6744,2.6732,2.672,2.6694,2.6677,2.6669,2.6654,2.6631,2.6612,2.6608,2.6599,2.6595,2.6591,2.6619,2.6622,2.6625,2.663,2.6593,2.6593,2.6562,2.6562,2.6562]}]]